Погода в Прибрежном

Россия / Самарская область     53°29′03″N   49°51′09″E
темп.,
°C
ветер,
м/с
пор.,
м/с
влажн.,
%
обл.,
%
осадки,
мм/ч
давл.,
гПа
погр.,
м
20 июня, вс
вс2001:00+16з24912 0.0 102365
04:00+15з24910 0.0 102363
07:00+19зсз36760 0.0 1022216
10:00+24зсз34623 0.0 1022522
13:00+27зсз44515 0.0 10221157
16:00+28ссз44480 0.0 10221374
19:00+26ссз24640 0.0 1020395
22:00+21с11820 0.0 102111
21 июня, пн
пн2101:00+20св00870 0.0 102211
04:00+19зсз00900 0.0 102211
07:00+23ююв11760 0.0 1023163
10:00+26юз22680 1.8 1023846
13:00+29зюз33488 0.1 10222001
16:00+30з334437 0.1 10222083
19:00+28з115780 0.0 1021334
22:00+22ю01705 0.0 102211
22 июня, вт
вт2201:00+21ююз00720 0.0 102211
04:00+20юз117625 0.0 102311
07:00+23з11678 0.0 1023110
10:00+28зсз22506 0.0 10231046
13:00+30зсз22415 0.0 10232050
16:00+31зсз33385 0.0 10222248
19:00+29ссз23570 0.0 1021447
22:00+23вюв00730 0.0 102211
23 июня, ср
ср2301:00+21ююз00743 0.0 102211
04:00+20зюз00773 0.0 102211
07:00+24ссз11670 0.0 1022119
10:00+29сз23510 0.0 10221094
13:00+31ссз33420 0.0 10212286
16:00+31ссз44380 0.0 10212185
19:00+28сз24540 0.0 1020322
22:00+23вюв117639 0.0 102111
24 июня, чт
чт2401:00+21з11765 0.0 102111
04:00+20з22785 0.0 102116
07:00+24сз23670 0.0 1021176
10:00+29сз33504 0.0 1020884
13:00+31ссз444211 0.0 10202278
16:00+31сз44380 0.0 10192138
19:00+26з136192 0.0 1019329
22:00+20зсз2389100 0.8 101965